Torna al catalogo

STARLINK-2515

AttivoComunicazioniVLEO
NORAD 48323·PAYLOAD·🇺🇸 United States

Lanciato Apr 29, 2021 da Cape Canaveral Space Force Station

Loading…

Prossimi Passaggi (prossime 24 ore)

TLE

AggiornatoSource: CelesTrak SupGP

Epoca: Sep 14, 2026, 21:44 UTC

1 48323C 21036AZ  26257.90604167  .00021261  00000+0  68370-3 0  2572
2 48323  53.1585 300.4735 0001348  84.0104 269.8029 15.31690851    10

Traccia STARLINK-2515 in tempo reale con AllMySat

Download on the App Store